Millbury, Ohio, United States (43447)
Lat: 41.57N, Lon: 83.42W
Wx Zone: OHZ006
Local Info
Past Weather Observations for Today

NOTE: This archive is for the closest National Weather Service station to Millbury. Information may differ from the station used for current weather conditions.

Click here for Long-term Archive

Time Weather Temperature Dewpoint Humidity Pressure Winds Precip Visibility
19:10
Overcast
54°F / 12°C 50°F / 10°C 88% 29.86 in
(1011 mb)
SSW 5.8 mph
(SSW 9 kph)
- 9SM
18:53
Overcast
54°F / 12°C 50°F / 10°C 88% 29.86 in
(1011 mb)
SW 5.8 mph
(SW 9 kph)
- 10SM
18:11
Overcast
54°F / 12°C 50°F / 10°C 88% 29.86 in
(1011 mb)
SSW 3.5 mph
(SSW 6 kph)
- 9SM
17:53
Overcast
54°F / 12°C 50°F / 10°C 88% 29.83 in
(1010 mb)
SSW 3.5 mph
(SSW 6 kph)
- 8SM
17:04
Overcast
54°F / 12°C 48°F / 9°C 82% 29.83 in
(1010 mb)
SSW 4.6 mph
(SSW 7 kph)
- 9SM
16:53
Overcast
54°F / 12°C 50°F / 10°C 88% 29.83 in
(1010 mb)
SSW 3.5 mph
(SSW 6 kph)
- 9SM
15:53
Overcast
54°F / 12°C 48°F / 9°C 82% 29.83 in
(1010 mb)
SSW 8.1 mph
(SSW 13 kph)
- 10SM
15:27
Overcast
54°F / 12°C 48°F / 9°C 82% 29.83 in
(1010 mb)
SSW 10.4 mph
(SSW 17 kph)
- 10SM
14:53
Overcast
54°F / 12°C 48°F / 9°C 82% 29.83 in
(1010 mb)
SSW 13.8 mph
(SSW 22 kph)
- 10SM
14:00
Mostly Cloudy
54°F / 12°C 48°F / 9°C 82% 29.83 in
(1010 mb)
SW 13.8 mph
(SW 22 kph)
- 10SM
13:53
Mostly Cloudy
55°F / 13°C 48°F / 9°C 77% 29.8 in
(1009 mb)
SW 15 mph
(SW 24 kph)
0.02 in
(0.51 mm)
10SM
12:53
Overcast
Light Rain
54°F / 12°C 48°F / 9°C 82% 29.83 in
(1010 mb)
SW 16.1 mph
(SW 26 kph)
0.04 in
(1.02 mm)
7SM
12:34
Overcast
Rain
55°F / 13°C 46°F / 8°C 72% 29.83 in
(1010 mb)
SW 12.7 mph
(SW 20 kph)
0.01 in
(0.25 mm)
6SM
12:09
Overcast
57°F / 14°C 46°F / 8°C 67% 29.83 in
(1010 mb)
SSW 20.7 mph
(SSW 33 kph)
- 10SM
11:53
Overcast
57°F / 14°C 46°F / 8°C 67% 29.86 in
(1011 mb)
SW 18.4 mph
(SW 30 kph)
- 10SM
10:53
Clear
57°F / 14°C 46°F / 8°C 67% 29.86 in
(1011 mb)
SW 17.3 mph
(SW 28 kph)
- 10SM
09:53
Mostly Cloudy
54°F / 12°C 45°F / 7°C 72% 29.89 in
(1012 mb)
SSE 11.5 mph
(SSE 19 kph)
0.00 in
(0.00 mm)
10SM
08:53
Overcast
52°F / 11°C 43°F / 6°C 72% 29.89 in
(1012 mb)
SSE 12.7 mph
(SSE 20 kph)
- 10SM
07:53
Overcast
50°F / 10°C 43°F / 6°C 76% 29.89 in
(1012 mb)
S 10.4 mph
(S 17 kph)
- 10SM
06:53
Overcast
48°F / 9°C 43°F / 6°C 82% 29.92 in
(1013 mb)
SW 10.4 mph
(SW 17 kph)
0.00 in
(0.00 mm)
10SM
05:53
Overcast
48°F / 9°C 41°F / 5°C 76% 29.92 in
(1013 mb)
SSE 8.1 mph
(SSE 13 kph)
0.00 in
(0.00 mm)
10SM
04:53
Partly Cloudy
46°F / 8°C 39°F / 4°C 76% 29.95 in
(1014 mb)
SSE 8.1 mph
(SSE 13 kph)
- 10SM
03:53
Clear
46°F / 8°C 39°F / 4°C 76% 29.95 in
(1014 mb)
SW 10.4 mph
(SW 17 kph)
- 10SM
02:53
Overcast
48°F / 9°C 39°F / 4°C 71% 29.98 in
(1015 mb)
SW 10.4 mph
(SW 17 kph)
- 10SM
01:53
Mostly Cloudy
48°F / 9°C 37°F / 3°C 66% 29.98 in
(1015 mb)
SSE 9.2 mph
(SSE 15 kph)
- 10SM
00:53
Clear
48°F / 9°C 36°F / 2°C 62% 30.01 in
(1016 mb)
SSW 10.4 mph
(SSW 17 kph)
- 10SM
Time Weather Temperature Dewpoint Humidity Pressure Winds Precip Visibility


Weather for websites

WeatherForYou.com, LLC is not responsible for any damages or problems caused by this service. Current weather conditions are obtained from the closest station including government and personal stations which may have varying degrees of accuracy. Weather forecasts are derived from the NOAA NDFD. Like all things, this site belongs to Jesus Christ... He just trusts me to maintain it. If you have any questions or comments email webmaster@weatherforyou.com

Copyright © 2014, WeatherForYou.com LLC. All rights reserved.